Weather History for Parsons, KS

Change the Weather History Date:

Friday, February 1, 2013

  Actual Average Record
Temperature  
Mean Temperature 21 °F -  
Max Temperature 32 °F 47 °F 72 °F (2003)
Min Temperature 10 °F 24 °F -16 °F (1979)
Degree Days  
Heating Degree Days 44    
Moisture  
Dew Point 10 °F    
Average Humidity 61    
Maximum Humidity 84    
Minimum Humidity 41    
Precipitation  
Precipitation 0.00 in - - ()
Sea Level Pressure  
Sea Level Pressure 30.39 in    
Wind  
Wind Speed 3 mph (East)    
Max Wind Speed 6 mph    
Max Gust Speed -    
Visibility 10 miles    
Events      
Averages and records for this station are not official NWS values.
T = Trace of Precipitation, MM = Missing Value Source: NWS Daily Summary

Daily Weather History Graph

Daily Weather History Graph

Search for Another Location

Airport:

Trip Planner

Search our weather history database for the weather conditions in past years. The results will help you decide how hot, cold, wet, or windy it might be!

Date:

Astronomy

Feb. 01, 2013 Rise Set
Actual Time 7:24 AM CST 5:46 PM CST
Civil Twilight 6:57 AM CST 6:14 PM CST
Nautical Twilight 6:26 AM CST 6:45 PM CST
Astronomical Twilight 5:55 AM CST 7:16 PM CST
Moon 11:45 PM CST (2/1) 10:07 AM CST (2/1)
Length of Visible Light 11h 16m
Length of Day
10h 21m
Waning Gibbous, 70% of the Moon is Illuminated
Feb 1
Waning Gibbous
Feb 3
Last Quarter
Feb 10
New
Feb 17
First Quarter
Feb 25
Full

Hourly Weather History & Observations

Time (CST) Temp. Windchill Dew Point Humidity Pressure Visibility Wind Dir Wind Speed Gust Speed Precip Events Conditions
12:52 AM 15.1 °F 9.4 °F 6.1 °F 68% 30.51 in 10.0 mi NNE 3.5 mph - N/A   Clear
1:52 AM 16.0 °F 10.4 °F 7.0 °F 68% 30.48 in 10.0 mi Variable 3.5 mph - N/A   Clear
2:52 AM 15.1 °F 6.4 °F 5.0 °F 64% 30.47 in 10.0 mi ENE 5.8 mph - N/A   Clear
3:52 AM 12.9 °F - 5.0 °F 71% 30.49 in 10.0 mi Calm Calm - N/A   Clear
4:52 AM 12.0 °F - 6.1 °F 77% 30.48 in 10.0 mi Calm Calm - N/A   Clear
5:52 AM 10.9 °F - 6.1 °F 81% 30.49 in 10.0 mi Calm Calm - N/A   Clear
6:52 AM 10.9 °F - 7.0 °F 84% 30.51 in 10.0 mi Calm Calm - N/A   Clear
7:52 AM 12.0 °F - 8.1 °F 84% 30.52 in 10.0 mi Calm Calm - N/A   Clear
8:52 AM 18.0 °F 12.7 °F 3.9 °F 54% 30.51 in 10.0 mi SE 3.5 mph - N/A   Scattered Clouds
9:52 AM 21.0 °F 16.2 °F 7.0 °F 55% 30.49 in 10.0 mi Variable 3.5 mph - N/A   Clear
10:52 AM 23.0 °F 15.8 °F 6.1 °F 48% 30.48 in 10.0 mi Variable 5.8 mph - N/A   Clear
11:52 AM 24.1 °F 17.0 °F 5.0 °F 44% 30.46 in 10.0 mi South 5.8 mph - N/A   Clear
12:52 PM 28.0 °F 22.8 °F 8.1 °F 43% 30.41 in 10.0 mi Variable 4.6 mph - N/A   Clear
1:52 PM 28.9 °F 22.8 °F 8.1 °F 41% 30.36 in 10.0 mi Variable 5.8 mph - N/A   Clear
2:52 PM 30.9 °F 26.2 °F 10.0 °F 42% 30.31 in 10.0 mi Variable 4.6 mph - N/A   Clear
3:52 PM 32.0 °F - 12.0 °F 44% 30.28 in 10.0 mi Calm Calm - N/A   Clear
4:52 PM 32.0 °F 28.7 °F 12.9 °F 45% 30.26 in 10.0 mi NE 3.5 mph - N/A   Clear
5:52 PM 30.0 °F - 14.0 °F 51% 30.24 in 10.0 mi Calm Calm - N/A   Clear
6:52 PM 27.0 °F - 15.1 °F 61% 30.26 in 10.0 mi Calm Calm - N/A   Clear
7:52 PM 26.1 °F - 16.0 °F 66% 30.27 in 10.0 mi Calm Calm - N/A   Clear
8:52 PM 24.1 °F - 16.0 °F 71% 30.26 in 10.0 mi Calm Calm - N/A   Clear
9:52 PM 26.1 °F 21.9 °F 15.1 °F 63% 30.24 in 10.0 mi East 3.5 mph - N/A   Clear
10:52 PM 28.0 °F - 17.1 °F 63% 30.25 in 10.0 mi Calm Calm - N/A   Partly Cloudy
11:52 PM 28.0 °F - 18.0 °F 66% 30.22 in 10.0 mi Calm Calm - N/A   Overcast